Weather History for Faith Ranch AP, Carrizo Sprin, TX

Change the Weather History Date:

Thursday, April 10, 2014

  Actual Average (KCOT) Record (KCOT)
Temperature  
Mean Temperature 77 °F -  
Max Temperature 95 °F 81 °F 100 °F (2011)
Min Temperature 59 °F 58 °F 42 °F (2003)
Cooling Degree Days 12    
Growing Degree Days 27 (Base 50)    
Moisture  
Dew Point 48 °F    
Average Humidity 36    
Maximum Humidity 77    
Minimum Humidity 14    
Precipitation  
Precipitation 0.00 in - - ()
Sea Level Pressure  
Sea Level Pressure 29.96 in    
Wind  
Wind Speed 11 mph (SSE)    
Max Wind Speed 17 mph    
Max Gust Speed 24 mph    
Visibility 10 miles    
Events      
Averages and records for this station are not official NWS values.
T = Trace of Precipitation, MM = Missing Value Source: NWS Daily Summary

Daily Weather History Graph

Daily Weather History Graph

Search for Another Location

Airport:

Trip Planner

Search our weather history database for the weather conditions in past years. The results will help you decide how hot, cold, wet, or windy it might be!

Date:

Astronomy

Apr. 10, 2014 Rise Set
Actual Time 7:20 AM CDT 8:02 PM CDT
Civil Twilight 6:56 AM CDT 8:26 PM CDT
Nautical Twilight 6:28 AM CDT 8:54 PM CDT
Astronomical Twilight 5:59 AM CDT 9:23 PM CDT
Moon 4:08 PM CDT (4/10) 4:22 AM CDT (4/10)
Length of Visible Light 13h 30m
Length of Day
12h 42m
Waxing Gibbous, 80% of the Moon is Illuminated
Apr 10
Waxing Gibbous
Apr 15
Full
Apr 22
Last Quarter
Apr 29
New
May 6
First Quarter

Hourly Weather History & Observations

Time (CDT) Temp. Heat Index Dew Point Humidity Pressure Visibility Wind Dir Wind Speed Gust Speed Precip Events Conditions
6:10 AM 62.6 °F - 50.0 °F 63% 30.03 in 10.0 mi SSE 6.9 mph - N/A   Overcast
7:10 AM 60.8 °F - 51.8 °F 72% 30.04 in 10.0 mi SSE 6.9 mph - N/A   Overcast
7:30 AM 59.0 °F - 51.8 °F 77% 30.05 in 10.0 mi SSE 6.9 mph - N/A   Overcast
7:50 AM 59.0 °F - 51.8 °F 77% 30.05 in 10.0 mi SSE 6.9 mph - N/A   Overcast
8:10 AM 62.6 °F - 51.8 °F 68% 30.05 in 10.0 mi SSE 8.1 mph - N/A   Overcast
8:30 AM 64.4 °F - 53.6 °F 68% 30.05 in 10.0 mi SSE 12.7 mph 20.7 mph N/A   Overcast
8:50 AM 66.2 °F - 53.6 °F 64% 30.05 in 10.0 mi SSE 9.2 mph 18.4 mph N/A   Overcast
9:10 AM 66.2 °F - 53.6 °F 64% 30.05 in 10.0 mi SSE 11.5 mph 20.7 mph N/A   Overcast
9:50 AM 69.8 °F - 53.6 °F 56% 30.06 in 10.0 mi SSE 15.0 mph 20.7 mph N/A   Overcast
10:10 AM 71.6 °F - 55.4 °F 57% 30.06 in 10.0 mi South 13.8 mph 18.4 mph N/A   Overcast
10:30 AM 73.4 °F - 53.6 °F 50% 30.06 in 10.0 mi SSE 13.8 mph 18.4 mph N/A   Overcast
10:50 AM 75.2 °F - 53.6 °F 47% 30.06 in 10.0 mi SSE 13.8 mph 19.6 mph N/A   Overcast
11:10 AM 77.0 °F - 53.6 °F 44% 30.06 in 10.0 mi South 15.0 mph 18.4 mph N/A   Overcast
11:30 AM 77.0 °F - 53.6 °F 44% 30.05 in 10.0 mi South 12.7 mph 21.9 mph N/A   Overcast
11:50 AM 80.6 °F 80.3 °F 53.6 °F 39% 30.05 in 10.0 mi South 11.5 mph 19.6 mph N/A   Overcast
12:10 PM 80.6 °F 80.3 °F 53.6 °F 39% 30.04 in 10.0 mi SSE 15.0 mph 19.6 mph N/A   Overcast
12:30 PM 82.4 °F - 51.8 °F 35% 30.03 in 10.0 mi SSE 9.2 mph 18.4 mph N/A   Overcast
12:50 PM 84.2 °F - 50.0 °F 30% 30.02 in 10.0 mi South 13.8 mph 20.7 mph N/A   Overcast
1:10 PM 84.2 °F - 50.0 °F 30% 30.00 in 10.0 mi SSE 13.8 mph 21.9 mph N/A   Overcast
1:30 PM 86.0 °F - 48.2 °F 27% 29.99 in 10.0 mi SSE 15.0 mph 21.9 mph N/A   Overcast
1:50 PM 89.6 °F - 46.4 °F 22% 29.98 in 10.0 mi South 12.7 mph 24.2 mph N/A   Overcast
2:10 PM 89.6 °F - 46.4 °F 22% 29.96 in 10.0 mi South 17.3 mph 21.9 mph N/A   Overcast
2:30 PM 91.4 °F - 46.4 °F 21% 29.95 in 10.0 mi SSE 13.8 mph 21.9 mph N/A   Overcast
2:50 PM 91.4 °F - 46.4 °F 21% 29.94 in 10.0 mi SE 13.8 mph 23.0 mph N/A   Overcast
3:10 PM 91.4 °F - 44.6 °F 20% 29.93 in 10.0 mi SSE 13.8 mph 21.9 mph N/A   Overcast
3:30 PM 91.4 °F - 44.6 °F 20% 29.92 in 10.0 mi SSE 13.8 mph 18.4 mph N/A   Overcast
3:50 PM 93.2 °F - 44.6 °F 19% 29.91 in 10.0 mi SSE 13.8 mph 19.6 mph N/A   Overcast
4:10 PM 93.2 °F - 41.0 °F 16% 29.91 in 10.0 mi South 11.5 mph 20.7 mph N/A   Overcast
4:30 PM 93.2 °F - 41.0 °F 16% 29.90 in 10.0 mi SSE 11.5 mph 23.0 mph N/A   Overcast
4:50 PM 95.0 °F - 39.2 °F 14% 29.89 in 10.0 mi SSE 9.2 mph 19.6 mph N/A   Overcast
5:10 PM 93.2 °F - 39.2 °F 15% 29.88 in 10.0 mi SSE 13.8 mph 19.6 mph N/A   Overcast
5:30 PM 93.2 °F - 37.4 °F 14% 29.87 in 10.0 mi SE 11.5 mph 20.7 mph N/A   Overcast
5:50 PM 93.2 °F - 37.4 °F 14% 29.86 in 10.0 mi SSE 15.0 mph 23.0 mph N/A   Overcast
6:10 PM 91.4 °F - 37.4 °F 15% 29.86 in 10.0 mi SSE 13.8 mph 24.2 mph N/A   Overcast
6:30 PM 91.4 °F - 39.2 °F 16% 29.86 in 10.0 mi SSE 15.0 mph 19.6 mph N/A   Overcast
6:50 PM 89.6 °F - 39.2 °F 17% 29.86 in 10.0 mi SSE 15.0 mph 21.9 mph N/A   Overcast
7:10 PM 89.6 °F - 39.2 °F 17% 29.86 in 10.0 mi SSE 12.7 mph 20.7 mph N/A   Overcast
7:30 PM 87.8 °F - 39.2 °F 18% 29.87 in 10.0 mi SSE 12.7 mph 21.9 mph N/A   Overcast
7:50 PM 86.0 °F - 41.0 °F 20% 29.87 in 10.0 mi SSE 11.5 mph 17.3 mph N/A   Overcast
8:10 PM 86.0 °F - 42.8 °F 22% 29.88 in 10.0 mi SE 8.1 mph - N/A   Overcast
8:30 PM 84.2 °F - 42.8 °F 23% 29.88 in 10.0 mi SSE 10.4 mph - N/A   Overcast
8:50 PM 84.2 °F - 44.6 °F 25% 29.89 in 10.0 mi SE 6.9 mph - N/A   Overcast
9:10 PM 82.4 °F - 46.4 °F 28% 29.89 in 10.0 mi SE 6.9 mph - N/A   Overcast
9:30 PM 82.4 °F - 46.4 °F 28% 29.90 in 10.0 mi SE 9.2 mph - N/A   Overcast
9:50 PM 82.4 °F - 48.2 °F 30% 29.91 in 10.0 mi SE 8.1 mph 18.4 mph N/A   Overcast
10:10 PM 80.6 °F - 51.8 °F 37% 29.92 in 10.0 mi SE 11.5 mph 19.6 mph N/A   Overcast
10:30 PM 80.6 °F 80.3 °F 53.6 °F 39% 29.93 in 10.0 mi SE 11.5 mph 19.6 mph N/A   Overcast
10:50 PM 78.8 °F - 55.4 °F 44% 29.94 in 10.0 mi SE 11.5 mph 17.3 mph N/A   Overcast
11:10 PM 77.0 °F - 55.4 °F 47% 29.94 in 10.0 mi SE 10.4 mph 18.4 mph N/A   Overcast
11:30 PM 75.2 °F - 55.4 °F 50% 29.94 in 10.0 mi SE 10.4 mph 16.1 mph N/A   Overcast
11:50 PM 75.2 °F - 57.2 °F 53% 29.95 in 10.0 mi SE 10.4 mph 23.0 mph N/A   Overcast